Weather History for Cahokia, IL

Change the Weather History Date:

Saturday, August 3, 2013

  Actual Average Record
Temperature  
Mean Temperature 78 °F -  
Max Temperature 87 °F 88 °F 104 °F (1964)
Min Temperature 69 °F 67 °F 57 °F (2014)
Cooling Degree Days 12    
Growing Degree Days 28 (Base 50)    
Moisture  
Dew Point 68 °F    
Average Humidity 81    
Maximum Humidity 100    
Minimum Humidity 53    
Precipitation  
Precipitation 0.00 in - - ()
Sea Level Pressure  
Sea Level Pressure 30.00 in    
Wind  
Wind Speed 2 mph (North)    
Max Wind Speed 13 mph    
Max Gust Speed -    
Visibility 6 miles    
Events      
Averages and records for this station are not official NWS values.
T = Trace of Precipitation, MM = Missing Value Source: NWS Daily Summary

Daily Weather History Graph

Daily Weather History Graph

Search for Another Location

Airport:

Trip Planner

Search our weather history database for the weather conditions in past years. The results will help you decide how hot, cold, wet, or windy it might be!

Date:

Astronomy

Aug. 03, 2013 Rise Set
Actual Time 6:04 AM CDT 8:08 PM CDT
Civil Twilight 5:34 AM CDT 8:37 PM CDT
Nautical Twilight 4:59 AM CDT 9:13 PM CDT
Astronomical Twilight 4:20 AM CDT 9:52 PM CDT
Moon 3:14 AM CDT (8/3) 5:50 PM CDT (8/3)
Length of Visible Light 15h 02m
Length of Day
14h 04m
Waning Crescent, 9% of the Moon is Illuminated
Aug 3
Waning Crescent
Aug 6
New
Aug 14
First Quarter
Aug 20
Full
Aug 28
Last Quarter

Hourly Weather History & Observations

Time (CDT) Temp. Heat Index Dew Point Humidity Pressure Visibility Wind Dir Wind Speed Gust Speed Precip Events Conditions
12:53 AM 71.1 °F - 70.0 °F 96% 29.94 in 3.0 mi Calm Calm - N/A   Mostly Cloudy
1:53 AM 72.0 °F - 70.0 °F 93% 29.94 in 4.0 mi Calm Calm - N/A   Overcast
2:53 AM 72.0 °F - 70.0 °F 93% 29.93 in 2.5 mi Calm Calm - N/A   Overcast
3:02 AM 71.6 °F - 69.8 °F 94% 29.94 in 3.0 mi Calm Calm - N/A   Mostly Cloudy
3:13 AM 71.6 °F - 69.8 °F 94% 29.94 in 2.5 mi Calm Calm - N/A   Mostly Cloudy
3:20 AM 71.6 °F - 69.8 °F 94% 29.94 in 3.0 mi Calm Calm - N/A   Mostly Cloudy
3:53 AM 72.0 °F - 70.0 °F 93% 29.93 in 4.0 mi Calm Calm - N/A   Overcast
4:53 AM 70.0 °F - 69.1 °F 97% 29.93 in 3.0 mi Calm Calm - N/A   Partly Cloudy
4:58 AM 71.6 °F - 69.8 °F 94% 29.94 in 1.8 mi Calm Calm - N/A   Partly Cloudy
5:19 AM 69.8 °F - 69.8 °F 100% 29.95 in 2.0 mi Calm Calm - N/A   Scattered Clouds
5:26 AM 71.6 °F - 69.8 °F 94% 29.95 in 1.8 mi Calm Calm - N/A   Scattered Clouds
5:41 AM 71.6 °F - 69.8 °F 94% 29.96 in 2.0 mi Calm Calm - N/A   Scattered Clouds
5:46 AM 71.6 °F - 69.8 °F 94% 29.97 in 2.5 mi Calm Calm - N/A   Mostly Cloudy
5:51 AM 71.6 °F - 69.8 °F 94% 29.97 in 3.0 mi NNW 4.6 mph - N/A   Mostly Cloudy
5:53 AM 71.1 °F - 69.1 °F 93% 29.96 in 3.0 mi North 8.1 mph - N/A   Mostly Cloudy
6:42 AM 71.6 °F - 69.8 °F 94% 29.97 in 3.0 mi NNE 6.9 mph - N/A   Overcast
6:53 AM 72.0 °F - 69.1 °F 91% 29.96 in 3.0 mi North 4.6 mph - N/A   Overcast
7:53 AM 73.0 °F - 69.1 °F 87% 29.99 in 6.0 mi North 5.8 mph - N/A   Overcast
8:40 AM 73.4 °F - 69.8 °F 88% 30.03 in 8.0 mi Calm Calm - N/A   Overcast
8:53 AM 75.0 °F - 69.1 °F 82% 30.03 in 8.0 mi Calm Calm - N/A   Overcast
9:53 AM 75.9 °F - 69.1 °F 79% 30.03 in 10.0 mi North 6.9 mph - N/A   Overcast
10:53 AM 77.0 °F - 69.1 °F 76% 30.05 in 7.0 mi NNW 6.9 mph - N/A   Overcast
11:53 AM 79.0 °F - 69.1 °F 72% 30.05 in 10.0 mi Variable 5.8 mph - N/A   Mostly Cloudy
12:53 PM 82.9 °F 86.5 °F 69.1 °F 63% 30.04 in 10.0 mi North 5.8 mph - N/A   Mostly Cloudy
1:53 PM 84.9 °F 89.4 °F 70.0 °F 61% 30.04 in 10.0 mi NNW 8.1 mph - N/A   Scattered Clouds
2:53 PM 86.0 °F 90.1 °F 69.1 °F 57% 30.03 in 10.0 mi North 9.2 mph - N/A   Partly Cloudy
3:53 PM 86.0 °F 89.4 °F 68.0 °F 55% 30.02 in 10.0 mi NNE 9.2 mph - N/A   Clear
4:53 PM 86.0 °F 89.4 °F 68.0 °F 55% 30.03 in 10.0 mi North 12.7 mph - N/A   Scattered Clouds
5:53 PM 84.9 °F 87.1 °F 66.0 °F 53% 30.03 in 10.0 mi North 12.7 mph - N/A   Partly Cloudy
6:53 PM 82.9 °F 84.6 °F 64.9 °F 54% 30.03 in 10.0 mi North 10.4 mph - N/A   Partly Cloudy
7:53 PM 79.0 °F - 64.9 °F 62% 30.04 in 10.0 mi North 8.1 mph - N/A   Clear
8:53 PM 75.0 °F - 64.0 °F 69% 30.06 in 10.0 mi NE 4.6 mph - N/A   Clear
9:53 PM 73.9 °F - 63.0 °F 68% 30.09 in 10.0 mi Calm Calm - N/A   Clear
10:53 PM 72.0 °F - 62.1 °F 71% 30.10 in 10.0 mi Calm Calm - N/A   Clear
11:53 PM 69.1 °F - 63.0 °F 81% 30.10 in 10.0 mi Calm Calm - N/A   Clear